sat.trackr.live / text

‹ back to catalog

STARLINK-5313

NORAD 55313 · 2023-010AW

PAYLOAD ACTIVE UNKNOWN

§ Identity

Operator
Country
US
Launch date
2023-01-19
Launch site
AFWTR
Launch vehicle
Mass (kg)
RCS (m²)

Purposes: comms

External: N2YO · Heavens-Above · Gunter

§ Orbital elements

Epoch: 2026-09-20T22:00:03.000096Z

Period
95.51 min
Inclination
70.0003°
Eccentricity
0.0003465
Mean motion
15.07740832 rev/d
Perigee alt
540.7 km
Apogee alt
545.5 km
Semi-major
6,921.2 km
B*
3.3822e-3
RAAN
232.1435°
Arg perigee
228.4412°
Mean anomaly
265.5716°
Rev number
577

§ Raw data

STARLINK-53131 55313U 23010AW  26263.91670139  .00052060  00000+0  33822-2 0  99902 55313  70.0003 232.1435 0003465 228.4412 265.5716 15.07740832  5778

JSON: /api/v1/satellites/55313 · /tle

For live sub-satellite position, see the globe view (requires WebGL).

§ Visibility from observer

Set your observer location to see the next 7 days of passes ≥ 10°. The values pass through the URL so the page stays shareable.

No JS? Fill the form by hand. The geolocation button needs JavaScript.